Flag for Morocco Weather past 2 weeks in Tangier, Morocco

Now
66 °F

Clear.


Feels Like: 66 °F
Forecast: N/A
Wind: 8 mph from East

Location: Tanger Aerodrome

Current Time: Oct 26, 2014 at 2:18:10 AM

Latest Report: Oct 26, 2014 at 2:00 AM


Visibility: 2 mi

Pressure: 30.09 "Hg

Humidity: 83%

Dew point: 61 °F

Location of TangierLocation

Historic Weather in Tangier — Graph

°F

Tangier temperature yesterday

Maximum temperature yesterday: 77 °F (at 11:30 AM)
Minimum temperature yesterday: 61 °F (at 6:00 AM)
Average temperature yesterday: 69 °F

Past Weeks' High & Low Weather Summary

 TemperatureHumidityPressure
High97 °F (Oct 22, 1:30 PM)94% (Oct 12, 1:30 PM)30.21 "Hg (Oct 12, 1:30 PM)
Low59 °F (Oct 17, 6:30 AM)13% (Oct 22, 1:00 PM)29.80 "Hg (Oct 11, 1:00 PM)
Average71 °F66%30.00 "Hg
* Reported Oct 11 1:00 AM — Oct 26 1:00 AM, Tangier, Weather by CustomWeather, © 2014

Note: Actual official high and low records may vary slightly from our data, if they occured in-between our weather recording intervals... More about our weather records

Advertising

Tangier weather history for previous 24 hours

 ConditionsComfort  
Time TempWeatherWind HumidityBarometerVisibility
1:00 AM
Oct 26
66 °FClear.12 mph83%30.09 "Hg10 mi
12:30 AM66 °FClear.9 mph78%30.09 "Hg10 mi
12:00 AM66 °FClear.9 mph78%30.09 "Hg10 mi
11:30 PM
Oct 25
68 °FClear.9 mph73%30.09 "Hg10 mi
11:00 PM68 °FClear.9 mph73%30.07 "Hg10 mi
10:30 PM68 °FClear.9 mph73%30.07 "Hg10 mi
10:00 PM70 °FClear.8 mph69%30.07 "Hg10 mi
9:30 PM70 °FClear.9 mph69%30.07 "Hg10 mi
9:00 PM70 °FClear.8 mph69%30.07 "Hg10 mi
8:30 PM70 °FClear.9 mph69%30.07 "Hg10 mi
8:00 PM70 °FClear.10 mph64%30.04 "Hg10 mi
7:30 PM70 °FClear.9 mph64%30.04 "Hg10 mi
7:00 PM68 °FClear.2 mph73%30.04 "Hg10 mi
6:30 PM72 °FClear.No wind65%30.04 "Hg10 mi
6:00 PM72 °FClear.2 mph69%30.04 "Hg10 mi
5:30 PM73 °FSunny.2 mph65%30.01 "Hg10 mi
5:00 PM72 °FSunny.3 mph69%30.01 "Hg10 mi
4:30 PM77 °FSunny.5 mph57%30.01 "Hg10 mi
4:00 PM75 °FPassing clouds.3 mph61%30.01 "HgN/A
3:30 PM77 °FPassing clouds.6 mph57%30.01 "HgN/A
3:00 PM75 °FSunny.8 mph61%30.01 "Hg10 mi
2:30 PM77 °FPassing clouds.7 mph57%30.01 "HgN/A
2:00 PM77 °FPartly sunny.9 mph57%30.01 "HgN/A
1:30 PM75 °FPartly sunny.8 mph65%30.04 "HgN/A
1:00 PM73 °FPartly sunny.8 mph65%30.04 "HgN/A
12:00 PM75 °FPartly sunny.6 mph61%30.04 "Hg5 mi
11:30 AM77 °FPartly sunny.9 mph51%30.04 "Hg5 mi
11:00 AM75 °FPartly sunny.7 mph57%30.04 "Hg4 mi
10:30 AM73 °FPartly sunny.8 mph65%30.04 "Hg4 mi
10:00 AM70 °FPartly sunny.6 mph73%30.04 "Hg4 mi
9:30 AM68 °FPartly sunny.6 mph78%30.04 "Hg4 mi
9:00 AM64 °FPartly sunny.5 mph88%30.04 "Hg4 mi
8:00 AM61 °FFog.3 mph83%30.01 "Hg1 mi
7:30 AM61 °FFog.3 mph88%30.01 "Hg1 mi
7:00 AM61 °FFog.5 mph88%29.98 "Hg1 mi
6:30 AM61 °FPassing clouds.6 mph88%29.98 "Hg5 mi
6:00 AM61 °FPassing clouds.5 mph88%29.98 "Hg5 mi
5:30 AM63 °FMild.5 mph83%29.98 "Hg3 mi
5:00 AM63 °FPassing clouds.7 mph83%29.98 "Hg5 mi
4:30 AM63 °FPassing clouds.6 mph83%29.98 "HgN/A
4:00 AM63 °FPassing clouds.5 mph83%29.98 "Hg5 mi
3:30 AM63 °FPassing clouds.5 mph83%29.98 "HgN/A
3:00 AM64 °FPassing clouds.6 mph83%29.98 "Hg5 mi
2:30 AM64 °FPassing clouds.7 mph78%29.98 "HgN/A
2:00 AM64 °FPassing clouds.8 mph78%29.98 "Hg5 mi
Weather by CustomWeather, © 2014

See weather overviewHow to use our weather pages